Temp
85 84 84 83 84 83 84 84 84 85 87 87 88 86 85 85 86 84 83 83 82 81 83 83 81 82 82 83 83 82 81 81 76 79 82 83 83 84 84 84 84 83 82
85 84 84 84 83 84 82 85 85 85 86 87 86 86 85 85 85 84 83 85 83 82 82 83 83 87 82 82 82 81 81 83 80 76 79 80 81 82 82 81 85 90 85
87 86 86 85 84 84 83 85 85 84 85 87 86 84 85 85 84 84 84 84 84 84 84 83 83 83 82 82 82 81 81 82 80 78 78 81 81 83 82 82 82 82 86
90 88 85 85 85 85 84 83 85 85 84 85 85 85 85 85 85 85 85 84 84 85 85 85 84 83 82 82 82 81 82 81 80 79 79 80 81 82 81 80 79 82 82
90 88 86 86 86 85 84 84 84 84 85 85 84 85 85 86 89 84 84 84 83 84 85 85 85 84 79 80 85 82 81 81 81 81 80 80 79 79 78 80 79 80 83
89 88 87 85 84 85 84 84 83 83 84 84 84 84 84 89 78 74 81 85 84 83 82 83 85 78 79 74 72 72 76 79 78 79 79 78 77 79 80 80 80 80 77
88 88 86 85 84 83 84 83 83 82 84 83 83 84 83 85 73 71 74 86 84 83 83 83 85 91 80 85 75 72 72 71 72 79 77 77 77 79 79 78 78 78 78
87 87 86 86 84 84 83 83 82 84 83 83 83 83 84 85 72 68 71 83 84 83 84 83 83 83 83 83 84 83 81 81 79 79 77 79 80 81 80 81 79 79 81
88 87 87 87 85 84 83 83 83 83 83 83 84 83 83 84 69 68 69 80 83 82 83 83 83 83 77 72 80 80 80 81 79 68 71 71 71 70 74 80 79 78 76
89 89 89 87 86 84 83 83 84 84 84 86 85 85 80 83 70 65 69 85 82 83 82 82 72 79 71 65 78 80 79 81 82 83 83 79 70 73 66 72 77 74 77
91 91 89 88 86 85 84 84 84 84 85 83 84 85 85 83 83 63 61 82 85 84 84 85 86 68 64 63 63 81 80 81 80 81 82 83 84 84 85 83 80 77 76
89 89 89 87 90 90 84 84 84 83 82 82 82 84 87 86 71 63 60 65 75 84 84 87 85 68 62 62 64 67 65 64 80 80 80 80 81 83 85 82 83 80 80
87 86 87 87 87 87 85 83 84 83 84 83 84 83 86 88 87 65 60 60 63 78 85 79 63 60 58 57 59 62 60 74 78 78 79 80 82 85 83 82 81 79 78
85 85 86 86 85 86 88 87 85 85 84 85 84 85 85 87 89 88 75 68 62 69 72 78 74 71 63 69 73 65 74 79 80 80 81 83 84 82 80 80 77 77 75
86 87 86 88 84 85 86 86 86 87 85 85 87 87 87 86 88 80 80 82 80 74 76 80 80 80 80 81 82 83 80 80 79 81 81 81 81 79 76 77 76 76 74
81 86 87 88 87 86 85 80 53 58 53 58 60 76 73 56 50 50 49 62 63 58 76 80 79 80 81 82 82 83 83 79 82 81 80 79 78 75 76 76 77 75 74
73 74 85 83 87 85 84 84 79 65 50 49 49 53 58 55 50 50 52 52 53 59 77 75 81 83 83 84 85 83 82 82 80 78 79 76 75 76 75 74 75 75 76
69 61 75 74 85 85 86 85 87 81 78 75 54 57 51 52 51 49 53 58 71 67 75 78 79 82 84 82 83 83 80 80 79 78 78 78 77 75 74 75 76 76 76
64 66 66 70 71 72 83 88 87 87 85 79 68 56 51 47 50 49 52 78 80 75 74 78 81 82 80 80 80 80 79 80 79 79 79 76 75 75 75 75 77 67 68
61 63 63 67 71 71 72 74 73 73 72 74 74 75 70 65 72 72 69 71 76 77 78 78 80 79 80 80 78 80 79 78 78 78 77 75 76 77 76 78 78 77 75
60 64 64 69 69 70 71 72 69 71 73 77 79 73 57 74 76 74 72 72 73 76 76 78 78 78 75 76 78 77 79 78 79 78 76 76 77 78 77 77 77 78 77
61 62 63 63 64 65 67 70 72 72 73 75 78 70 55 70 78 76 74 73 72 70 71 73 73 73 76 76 78 78 79 78 79 78 78 78 77 77 77 76 76 75 74
57 57 60 58 58 57 60 62 62 64 73 72 71 76 72 69 69 67 67 67 67 67 67 65 65 70 70 73 74 68 66 64 65 68 72 74 74 73 73 72 72 71 70
52 51 52 56 54 54 54 54 55 52 55 62 66 65 64 64 64 64 65 63 62 63 65 62 59 58 57 59 59 60 53 51 56 65 66 68 72 68 70 70 71 71 69
49 47 45 44 46 48 48 47 47 49 50 52 53 58 59 63 61 59 59 57 58 57 57 56 58 57 53 52 50 48 39 35 47 41 62 66 67 70 72 72 72 72 72
45 45 44 43 42 42 42 42 42 42 43 44 46 48 49 50 53 55 57 57 56 53 51 50 50 52 51 50 45 38 34 36 42 36 52 62 65 67 65 67 70 70 70
MSLP
1009.92 1010.90 1011.75 1012.62 1013.32 1013.92 1014.09 1014.47 1014.64 1014.99 1015.20 1015.45 1015.91 1016.22 1016.64 1017.05 1017.42 1017.87 1018.20 1018.38 1018.66 1018.87 1018.88 1018.88 1019.06 1019.08 1019.07 1019.07 1019.02 1019.06 1019.11 1019.18 1019.38 1018.97 1018.56 1018.20 1018.14 1018.10 1017.92 1017.65 1017.52 1017.51 1017.36
1008.73 1009.81 1010.76 1011.60 1012.50 1013.00 1013.50 1013.70 1014.18 1014.48 1014.87 1015.14 1015.56 1016.02 1016.39 1016.72 1017.11 1017.45 1017.80 1017.96 1018.22 1018.55 1018.58 1018.56 1018.60 1018.73 1018.78 1018.84 1019.00 1019.10 1019.04 1018.85 1019.05 1019.01 1018.76 1018.58 1018.28 1017.85 1017.42 1017.32 1016.86 1016.53 1016.38
1007.78 1008.88 1009.79 1010.58 1011.26 1011.95 1012.74 1013.14 1013.52 1014.08 1014.45 1014.77 1015.11 1015.55 1015.95 1016.35 1016.73 1017.00 1017.25 1017.58 1017.79 1017.89 1018.01 1018.08 1018.16 1018.26 1018.44 1018.57 1018.72 1018.82 1018.77 1018.68 1018.69 1018.72 1018.58 1018.19 1017.83 1017.40 1017.01 1016.65 1016.37 1016.07 1015.85
1006.50 1007.65 1008.56 1009.34 1010.00 1010.82 1011.62 1012.44 1012.86 1013.28 1013.81 1014.20 1014.60 1014.96 1015.41 1015.82 1016.18 1016.46 1016.68 1017.02 1017.26 1017.43 1017.44 1017.57 1017.65 1017.76 1017.94 1018.15 1018.36 1018.51 1018.60 1018.64 1018.60 1018.48 1018.22 1017.94 1017.59 1016.88 1016.58 1016.56 1016.42 1015.99 1015.53
1005.01 1006.24 1006.98 1008.00 1009.08 1009.97 1010.66 1011.31 1012.04 1012.59 1013.01 1013.54 1014.00 1014.33 1014.73 1015.12 1015.44 1015.81 1016.13 1016.34 1016.62 1016.86 1016.93 1017.02 1017.10 1017.22 1017.41 1017.57 1017.81 1018.00 1018.16 1018.24 1018.21 1018.07 1017.87 1017.50 1017.13 1016.96 1016.84 1016.51 1016.14 1015.72 1015.38
1003.78 1004.86 1006.30 1007.54 1008.34 1008.98 1009.70 1010.37 1011.18 1011.77 1012.18 1012.73 1013.18 1013.56 1013.90 1014.20 1014.53 1014.88 1015.37 1015.71 1015.84 1016.16 1016.40 1016.50 1016.52 1016.60 1016.80 1016.99 1017.17 1017.36 1017.52 1017.74 1017.83 1017.84 1017.61 1017.48 1017.20 1017.04 1016.71 1016.61 1016.31 1015.79 1014.81
1002.72 1003.99 1005.13 1006.22 1007.28 1008.05 1008.80 1009.65 1010.13 1010.79 1011.32 1011.75 1012.26 1012.68 1013.01 1013.36 1013.66 1014.00 1014.43 1014.87 1015.11 1015.30 1015.57 1015.80 1015.98 1015.98 1016.16 1016.34 1016.47 1016.55 1016.65 1016.72 1016.79 1016.99 1017.16 1017.06 1016.84 1016.62 1016.50 1016.26 1016.04 1015.66 1015.01
1001.99 1003.02 1004.15 1005.08 1006.01 1007.16 1008.06 1008.64 1009.41 1009.92 1010.41 1010.78 1011.22 1011.66 1012.07 1012.44 1012.84 1013.28 1013.62 1014.08 1014.24 1014.41 1014.66 1014.95 1015.18 1015.34 1015.38 1015.49 1015.68 1015.84 1015.95 1015.85 1015.81 1015.82 1015.92 1015.76 1015.72 1015.72 1015.68 1015.40 1015.24 1014.97 1014.52
1001.16 1002.04 1002.96 1003.97 1005.08 1006.10 1006.90 1007.61 1008.32 1009.07 1009.60 1009.90 1010.22 1010.65 1011.09 1011.47 1011.91 1012.46 1013.17 1013.63 1013.64 1013.72 1013.88 1014.14 1014.36 1014.62 1014.77 1014.99 1015.24 1015.23 1015.19 1014.94 1014.54 1014.97 1014.85 1014.80 1014.74 1014.78 1014.76 1014.81 1014.68 1014.61 1014.06
1000.16 1000.97 1002.23 1003.37 1004.28 1005.13 1005.90 1006.73 1007.54 1008.06 1008.34 1008.88 1009.28 1009.64 1010.15 1010.58 1010.99 1011.46 1012.20 1012.77 1012.93 1013.06 1013.20 1013.39 1013.58 1013.83 1014.19 1014.44 1014.70 1014.66 1014.51 1014.26 1014.19 1014.03 1014.22 1014.13 1014.08 1013.90 1014.04 1014.35 1013.91 1013.98 1013.69
999.72 1000.60 1001.52 1002.38 1003.23 1004.11 1005.16 1005.99 1006.64 1007.26 1007.74 1008.18 1008.55 1008.86 1009.29 1009.69 1010.07 1010.52 1011.22 1011.79 1011.81 1012.08 1012.20 1012.25 1012.49 1012.76 1013.14 1013.45 1013.63 1013.80 1013.62 1013.52 1013.58 1013.67 1013.67 1013.65 1013.32 1013.02 1012.84 1012.52 1012.67 1013.13 1013.12
999.29 1000.01 1000.67 1001.64 1002.54 1003.34 1004.25 1005.09 1005.78 1006.44 1006.96 1007.32 1007.74 1007.97 1008.12 1008.57 1009.11 1009.70 1010.23 1010.70 1010.89 1011.09 1010.95 1010.95 1011.22 1011.35 1011.54 1011.84 1012.25 1012.63 1012.76 1013.05 1013.46 1013.45 1013.41 1013.19 1012.95 1012.60 1012.20 1011.96 1011.67 1012.01 1012.16
999.50 999.42 1000.10 1000.90 1001.73 1002.49 1003.34 1004.25 1005.04 1005.62 1006.00 1006.42 1006.61 1006.98 1007.10 1007.38 1008.00 1008.62 1009.26 1009.72 1010.10 1010.42 1010.44 1010.57 1010.78 1010.96 1011.08 1011.34 1011.62 1011.98 1012.34 1012.92 1013.03 1012.94 1012.65 1012.39 1012.16 1011.80 1011.69 1011.69 1011.59 1011.78 1011.80
998.98 999.02 999.64 1000.28 1001.11 1001.88 1002.59 1003.39 1004.06 1004.43 1004.86 1005.08 1005.58 1005.83 1006.37 1006.70 1006.81 1007.30 1008.58 1009.23 1009.38 1009.86 1010.13 1010.43 1010.68 1010.89 1011.03 1011.06 1011.09 1011.49 1011.85 1011.87 1011.97 1011.91 1011.70 1011.45 1011.27 1011.18 1011.33 1011.58 1011.97 1012.02 1011.94
998.34 998.72 999.37 999.94 1000.59 1001.31 1001.95 1002.47 1003.06 1003.22 1003.47 1003.90 1004.16 1004.94 1005.49 1006.00 1005.94 1005.78 1006.50 1007.68 1008.32 1008.86 1009.37 1009.89 1010.12 1010.26 1010.35 1010.42 1010.30 1010.28 1010.73 1010.95 1011.10 1011.12 1011.12 1010.95 1010.94 1011.06 1011.47 1011.68 1011.88 1011.84 1011.74
999.43 998.82 999.14 999.47 1000.03 1000.72 1001.42 1002.60 1003.24 1003.14 1003.37 1003.38 1003.92 1004.00 1005.66 1005.78 1005.88 1005.79 1005.78 1006.08 1006.63 1007.59 1008.88 1009.06 1009.14 1009.32 1009.35 1009.34 1009.43 1009.48 1009.55 1009.88 1010.06 1010.24 1010.48 1010.67 1010.81 1011.07 1011.33 1011.37 1011.40 1011.49 1011.26
1000.76 1000.16 999.22 999.37 999.45 1000.06 1000.68 1001.45 1002.67 1004.27 1004.34 1004.49 1004.46 1004.56 1004.46 1005.44 1005.97 1005.98 1005.95 1006.10 1006.86 1007.73 1007.92 1008.41 1008.16 1008.18 1008.11 1008.12 1008.18 1008.51 1008.93 1009.22 1009.49 1009.86 1010.20 1010.49 1010.70 1010.80 1010.80 1010.82 1010.84 1010.89 1010.64
1002.26 1001.21 1000.53 1000.33 999.15 999.32 999.91 1000.52 1001.06 1002.30 1003.63 1004.40 1005.16 1005.22 1005.39 1005.92 1005.95 1006.08 1006.46 1006.20 1007.22 1007.53 1007.31 1007.35 1007.42 1007.13 1006.90 1007.05 1007.56 1007.90 1008.49 1008.95 1009.03 1009.14 1009.64 1010.03 1010.31 1010.37 1010.28 1010.26 1010.24 1010.18 1009.96
1003.28 1002.21 1001.44 1001.08 1000.24 999.52 999.47 999.84 999.92 1000.66 1002.00 1002.88 1004.88 1005.57 1006.05 1005.93 1006.29 1006.32 1006.60 1006.79 1006.51 1006.36 1006.60 1006.59 1007.40 1007.12 1006.06 1006.71 1007.62 1007.64 1008.18 1008.70 1008.66 1008.76 1009.26 1009.62 1009.89 1010.00 1009.88 1009.72 1009.52 1009.57 1009.76
1004.10 1002.71 1002.36 1001.92 1001.00 1000.64 1001.04 1001.00 1000.72 1001.09 1002.04 1002.70 1004.14 1004.73 1005.34 1005.58 1005.55 1005.46 1005.64 1006.06 1005.99 1006.03 1006.59 1005.37 1005.86 1005.61 1005.88 1006.58 1007.53 1007.84 1008.38 1008.66 1008.52 1008.74 1008.86 1009.16 1009.25 1009.30 1009.21 1009.18 1009.26 1009.24 1009.30
1004.34 1003.28 1003.00 1002.13 1001.91 1001.55 1001.95 1001.84 1002.17 1002.22 1002.70 1000.94 1002.55 1003.64 1004.11 1004.59 1004.66 1004.84 1004.83 1004.79 1004.68 1005.54 1006.21 1006.87 1007.13 1006.81 1006.30 1006.61 1007.48 1008.06 1008.32 1008.29 1007.99 1008.36 1008.42 1008.40 1008.56 1008.78 1008.92 1009.08 1009.27 1009.27 1009.20
1005.11 1004.44 1004.07 1003.89 1003.71 1003.20 1002.73 1002.53 1002.31 1002.08 1001.74 1002.01 1002.30 1003.23 1003.64 1004.32 1004.93 1004.58 1004.37 1003.92 1003.19 1003.63 1007.45 1007.85 1007.75 1007.52 1007.13 1007.45 1008.17 1008.24 1008.17 1008.05 1008.09 1008.20 1008.28 1008.46 1008.61 1008.83 1009.03 1009.14 1009.06 1009.30 1009.47
1005.99 1005.56 1005.35 1005.71 1005.75 1004.83 1004.47 1004.19 1004.20 1004.54 1003.79 1004.36 1004.06 1003.52 1004.96 1005.42 1006.74 1006.23 1005.43 1004.25 1005.58 1006.50 1008.76 1009.47 1009.38 1009.22 1009.16 1009.07 1009.29 1009.86 1010.12 1010.44 1010.28 1009.64 1009.12 1009.00 1009.53 1009.39 1009.52 1009.58 1009.42 1009.57 1009.64
1007.45 1007.40 1007.96 1007.89 1007.42 1006.07 1006.19 1005.36 1007.16 1005.85 1006.04 1006.56 1005.56 1005.59 1006.64 1005.64 1007.60 1007.66 1007.40 1007.18 1007.82 1008.89 1009.66 1010.48 1011.78 1011.65 1011.28 1011.28 1011.66 1011.69 1012.16 1011.97 1011.25 1010.46 1010.24 1010.01 1009.40 1009.53 1009.26 1009.49 1009.40 1009.45 1009.53
1009.16 1008.51 1008.34 1008.46 1008.55 1008.20 1008.39 1008.70 1008.79 1008.50 1007.94 1009.26 1008.57 1007.22 1008.37 1008.46 1009.06 1009.51 1009.65 1009.51 1009.52 1010.34 1010.76 1011.62 1012.13 1012.18 1012.53 1013.10 1013.36 1013.34 1013.21 1012.84 1012.18 1011.58 1010.75 1010.45 1009.95 1009.50 1008.68 1008.75 1008.97 1009.05 1008.99
1011.00 1010.58 1010.47 1010.15 1010.19 1010.36 1010.15 1010.58 1011.12 1010.16 1011.04 1011.12 1010.30 1009.55 1009.66 1010.84 1011.36 1011.22 1010.90 1010.87 1011.75 1012.97 1013.90 1014.22 1014.12 1013.63 1013.69 1014.06 1014.22 1013.96 1013.33 1012.99 1012.46 1011.75 1010.97 1010.22 1010.05 1009.76 1009.39 1009.04 1008.82 1008.90 1008.92
Wind_Speed
21 19 18 17 17 15 11 12 10 9 5 6 5 6 9 8 6 6 7 4 10 7 6 5 7 7 3 3 2 3 3 3 3 4 2 4 3 2 5 6 6 5 6
21 19 20 18 18 17 15 14 12 10 9 5 7 6 7 7 8 7 9 8 8 7 7 6 7 6 6 5 3 5 3 2 1 4 2 4 5 7 7 7 7 9 7
20 20 19 19 19 19 18 15 15 13 10 11 8 9 8 9 8 9 9 9 8 9 9 8 7 6 5 5 5 5 4 4 4 3 5 5 5 5 6 6 6 8 7
22 21 20 21 20 19 17 18 15 13 14 13 12 11 11 10 10 10 10 10 9 9 7 8 7 7 7 6 6 6 6 5 5 4 5 5 6 7 4 3 4 2 5
20 22 22 20 19 18 18 18 17 17 14 14 13 13 13 12 11 11 10 10 11 10 9 9 8 9 10 9 7 7 7 7 6 7 7 5 3 3 4 4 4 4 6
18 20 17 18 18 18 18 16 17 17 16 15 15 15 14 11 14 15 14 11 10 11 11 10 8 9 14 13 12 11 8 7 8 6 7 8 6 6 4 6 9 11 11
17 17 18 18 19 19 17 18 17 18 16 16 16 15 15 15 14 17 18 12 11 10 10 10 10 10 11 11 15 17 15 14 15 12 12 11 11 10 8 9 8 8 9
17 15 17 17 20 18 18 17 17 15 17 16 16 16 15 14 16 14 16 14 12 11 11 12 11 11 9 7 11 11 11 12 12 10 13 14 13 10 10 10 10 10 8
15 18 17 19 18 19 19 19 16 16 15 16 16 17 17 15 17 17 12 9 12 12 11 10 9 11 14 14 10 10 9 8 9 14 14 14 17 16 14 7 9 9 10
20 16 15 17 16 18 19 18 16 16 16 14 16 16 17 16 16 18 16 11 12 10 10 12 14 16 13 11 10 11 11 11 10 10 8 9 9 9 14 10 7 8 8
16 16 15 15 18 17 16 15 15 16 15 15 15 14 16 16 16 18 19 14 12 10 11 11 11 18 19 18 15 13 14 12 10 6 7 7 7 6 7 7 8 7 6
15 16 14 16 13 14 16 15 15 15 15 14 15 12 13 14 17 15 19 21 15 12 12 11 11 15 21 23 18 18 17 8 6 7 8 8 8 8 9 5 1 1 2
9 16 15 14 15 13 15 15 13 14 13 14 12 12 12 12 12 18 21 21 20 13 12 7 7 4 4 7 11 9 8 5 7 7 8 8 8 8 3 1 1 2 4
12 14 14 13 14 14 11 13 13 13 13 13 13 12 11 10 10 11 10 11 18 15 11 9 7 5 4 5 1 5 5 7 7 7 8 7 6 3 1 2 2 5 6
12 12 12 11 12 13 14 12 13 14 14 13 12 12 10 11 12 12 14 11 11 12 10 9 9 9 9 8 7 7 7 7 7 8 8 7 5 1 0 2 5 5 6
7 9 10 10 11 11 12 7 12 3 5 11 8 8 5 11 9 10 8 15 18 16 8 8 8 9 9 9 9 8 8 8 5 5 5 3 1 2 4 5 4 5 6
9 10 6 11 11 12 12 12 9 4 9 9 10 9 10 14 13 12 14 17 12 12 7 8 8 8 8 9 7 3 3 4 5 3 4 3 3 5 5 4 6 6 7
12 9 6 8 8 12 12 12 11 10 8 5 4 6 7 9 9 9 8 9 5 3 5 5 6 6 6 5 6 6 4 4 5 6 5 4 5 4 5 6 6 7 4
10 7 7 6 6 5 6 13 9 12 11 7 7 3 4 8 11 9 5 3 3 6 4 5 9 6 3 2 3 4 4 3 2 2 2 2 4 5 7 5 4 4 3
10 12 7 5 3 6 4 4 4 7 4 7 5 6 7 7 4 5 6 6 4 3 3 13 4 2 2 2 2 1 3 3 3 3 3 4 4 3 3 3 4 3 4
9 6 12 6 3 3 3 1 2 3 10 8 5 5 7 4 5 7 8 8 7 5 1 2 3 2 4 4 2 3 4 5 4 5 5 4 4 3 2 3 5 6 3
7 7 10 11 9 9 9 9 4 3 3 3 2 5 9 5 3 5 3 4 10 13 7 4 1 2 4 4 3 2 2 2 1 2 3 4 4 3 4 4 3 4 4
8 11 10 9 10 10 11 11 12 11 10 7 5 1 5 10 8 8 11 13 11 12 8 9 10 9 10 8 9 10 10 8 7 8 7 3 4 4 4 3 3 3 3
11 12 10 9 9 11 11 13 9 14 15 12 13 13 13 11 9 12 11 12 12 11 11 11 10 14 13 13 12 11 9 8 7 6 7 6 5 5 4 5 5 6 6
12 11 12 11 11 11 10 11 11 11 12 11 8 13 11 10 11 10 9 10 12 12 14 12 8 12 16 17 16 15 12 13 9 8 5 6 7 10 6 5 6 7 7
12 13 11 10 11 11 11 10 10 11 11 9 9 9 11 10 10 11 12 13 12 13 13 10 13 18 17 14 15 13 9 11 11 9 6 4 5 4 6 6 6 4 6
Wind_Direction
189 193 194 193 202 206 208 210 195 223 231 186 182 176 179 193 203 186 230 251 189 204 240 214 197 233 272 307 334 252 229 220 231 281 276 326 350 282 267 248 226 238 243
190 190 195 195 196 199 212 199 204 196 204 215 187 193 193 198 202 202 207 238 189 208 224 230 217 204 220 260 275 279 287 267 263 282 286 300 281 269 246 239 233 237 239
189 193 194 199 196 202 201 215 197 203 208 205 203 195 202 203 212 207 208 216 244 207 215 210 222 222 225 213 234 245 261 256 246 244 263 246 248 256 266 259 236 239 249
186 193 198 198 201 199 197 202 208 197 200 209 210 205 205 206 212 215 204 212 222 237 227 222 224 225 226 219 228 244 267 282 275 270 274 267 254 257 248 273 312 283 251
190 193 198 199 201 197 201 197 203 205 206 205 208 213 204 209 209 209 215 214 216 224 233 225 228 225 229 225 223 226 233 243 250 256 258 256 274 346 323 295 293 309 316
191 194 193 195 195 205 201 202 197 205 203 204 207 210 210 211 210 201 200 216 216 214 226 238 242 225 231 234 233 240 238 252 269 277 286 287 291 298 311 315 309 303 304
190 190 191 189 198 201 201 200 203 200 205 204 207 210 213 215 209 204 200 207 215 222 219 224 230 235 221 223 227 235 241 239 231 249 260 262 267 265 277 279 278 273 283
190 190 189 191 193 196 201 204 205 203 205 204 207 210 213 214 207 205 202 208 212 216 216 223 225 233 241 224 227 229 228 236 235 231 233 245 250 255 247 250 259 263 278
193 197 192 194 190 192 199 203 202 204 206 211 211 210 212 217 201 202 183 207 219 222 225 233 234 225 227 236 249 254 258 258 242 227 234 233 231 242 247 269 273 280 278
201 201 196 192 192 195 199 201 203 205 210 209 215 214 213 217 205 201 189 215 220 222 226 232 228 234 237 223 221 232 245 249 254 266 276 263 241 236 237 214 244 249 269
198 202 193 191 196 193 195 197 200 207 209 212 216 218 216 216 218 197 192 208 220 219 226 227 227 216 226 228 214 233 238 247 252 253 269 273 268 261 262 232 218 224 250
193 196 201 197 192 193 191 197 203 203 209 211 214 218 219 219 211 198 193 206 212 222 227 227 228 217 213 219 220 227 234 237 258 264 263 260 257 257 260 262 163 333 254
259 190 199 189 196 197 193 197 201 205 209 211 212 213 221 213 216 201 195 204 215 220 231 233 107 98 208 218 220 227 201 213 231 239 248 251 247 256 195 176 114 333 291
229 189 190 187 192 198 202 196 203 203 206 210 212 212 212 224 214 200 203 207 218 217 232 238 238 247 262 294 146 184 205 200 214 236 248 252 257 236 324 42 306 305 286
197 180 186 193 188 197 208 201 205 211 209 205 209 212 206 212 219 220 190 194 202 206 200 224 237 242 249 244 230 211 191 205 219 236 245 250 260 52 316 274 255 247 248
293 180 188 197 193 198 200 188 47 54 129 191 164 206 98 87 87 92 79 194 176 154 189 209 213 225 228 225 226 228 226 203 224 238 226 255 232 226 247 241 224 237 257
352 354 229 200 202 196 200 209 180 78 57 52 59 79 112 140 106 98 101 94 94 141 178 199 216 223 218 225 217 185 217 213 219 237 234 203 214 231 221 222 234 243 250
352 6 7 330 227 190 195 204 193 179 171 150 55 127 126 116 123 152 140 104 133 192 200 201 227 220 220 199 207 187 194 216 213 205 202 219 230 221 229 240 241 241 244
340 352 5 343 346 1 196 203 191 189 188 145 129 108 102 106 138 116 91 322 268 214 184 197 237 245 95 355 257 179 235 232 199 171 193 217 246 259 263 250 258 245 199
330 355 325 302 318 43 23 74 51 97 112 131 157 157 162 192 173 169 175 176 208 288 278 260 256 151 191 186 145 134 266 213 184 220 216 224 232 246 273 279 298 275 239
313 350 311 5 358 31 262 306 318 102 253 137 130 141 218 225 188 180 174 175 164 155 230 324 352 80 102 109 175 185 221 229 203 220 217 201 222 221 278 267 256 262 286
3 336 24 29 5 33 27 3 246 258 262 311 94 155 174 200 245 194 140 84 78 60 14 341 307 90 65 68 21 308 291 333 68 22 13 21 5 2 306 326 338 344 358
18 19 27 28 16 24 35 31 42 22 22 328 245 123 87 63 36 42 73 69 51 72 53 34 21 35 20 42 31 28 31 20 359 359 3 2 327 325 320 328 302 290 280
26 38 31 33 31 40 38 32 22 47 30 7 43 59 79 71 67 57 52 63 73 64 60 63 50 46 32 30 23 26 17 356 333 338 352 316 291 228 223 244 249 255 262
23 33 35 30 31 54 49 42 36 37 55 356 8 52 47 50 55 52 58 60 65 60 56 50 49 56 51 42 31 20 359 338 329 327 294 279 286 291 291 265 249 260 280
35 36 36 39 41 37 48 48 46 47 36 48 351 46 57 56 45 44 49 55 60 60 58 46 44 51 53 42 28 6 360 352 348 303 271 271 309 333 1 336 319 309 294